Theta_e
320 323 323 321 320 321 321 322 323 323 322 323 324 325 325 325 324 325 324 324 324 323 323 320 318 318 320 333 345 347 350 350 350 350 349 347 345 343 341 340 338 339 336 335
322 323 320 319 319 320 322 323 324 323 323 325 326 327 326 326 325 325 324 324 324 324 323 321 319 318 320 326 344 349 351 350 349 349 349 347 345 343 342 341 340 338 336 336
321 322 318 319 321 322 323 325 325 326 325 326 327 327 326 325 324 322 321 322 321 323 323 322 320 319 320 322 339 349 351 350 350 349 349 346 345 343 342 342 342 339 337 337
321 319 319 320 322 322 324 323 324 325 328 331 327 333 328 326 325 322 324 324 323 321 322 322 321 321 321 323 334 345 350 349 349 348 347 346 345 343 342 342 342 340 338 338
319 319 320 321 320 320 323 322 324 327 330 330 328 331 328 326 325 324 324 326 327 325 322 321 322 320 319 322 332 342 348 348 349 348 347 345 343 341 343 342 342 341 341 341
320 317 318 320 319 320 321 325 327 328 329 336 329 329 328 327 327 325 326 327 327 326 325 322 320 319 318 320 330 339 345 348 348 348 347 345 344 342 342 342 343 341 342 344
321 319 318 318 320 322 323 329 333 333 335 330 327 329 329 327 327 326 325 327 327 326 323 322 320 320 319 320 329 340 345 346 346 347 347 345 345 346 345 343 343 340 341 344
324 323 319 318 320 323 325 328 332 334 335 332 326 334 331 325 325 326 327 328 327 325 319 319 319 320 319 320 331 343 344 344 345 345 345 344 344 343 342 341 337 337 341 344
324 323 320 319 319 322 325 329 325 328 329 334 331 330 326 324 326 328 329 329 329 329 322 318 318 319 319 322 334 342 343 343 344 343 345 344 344 341 339 338 341 342 343 341
321 326 320 319 320 322 323 324 329 328 337 338 327 331 329 324 326 329 329 329 330 331 326 322 319 319 319 326 335 342 343 344 343 343 345 345 344 342 342 342 342 343 340 337
319 322 322 322 321 323 322 323 326 327 329 334 337 330 325 327 326 329 328 327 329 334 330 322 319 319 322 329 336 342 342 343 342 343 345 345 344 344 344 341 339 337 334 330
320 323 325 322 320 320 320 322 326 330 333 333 332 332 325 325 323 326 325 324 328 336 331 324 321 322 329 336 338 343 343 342 342 343 345 346 345 341 336 333 332 328 326 322
319 325 327 322 323 322 323 322 323 327 329 331 330 332 325 324 324 324 323 322 327 336 332 327 323 327 335 339 343 342 340 342 343 343 343 338 336 332 329 327 326 324 321 318
316 324 326 331 325 322 324 323 323 324 329 329 332 327 327 325 321 322 320 320 326 330 335 332 333 336 339 340 340 339 340 341 341 343 334 332 329 328 325 324 323 321 320 317
323 325 322 322 322 321 322 325 323 324 326 329 326 326 325 324 323 321 318 320 324 325 330 332 336 335 340 341 341 339 339 341 341 339 330 326 323 323 322 319 315 314 312 311
319 325 323 325 321 320 322 323 325 323 326 325 324 326 322 324 323 318 317 318 322 323 324 327 334 338 338 336 337 338 337 333 331 325 322 320 319 315 312 311 311 311 311 313
320 323 324 323 322 323 329 326 324 324 325 323 326 325 324 326 324 318 316 316 319 321 321 323 327 328 330 331 332 330 328 324 321 318 315 314 311 308 307 308 308 307 308 306
322 323 322 324 323 328 325 321 322 323 323 322 321 322 325 325 323 317 315 315 316 318 319 320 323 323 324 321 320 320 319 318 315 313 310 308 307 306 306 307 307 308 308 306
320 322 322 323 325 323 324 322 322 324 325 322 322 321 322 323 323 321 314 313 314 315 317 318 320 322 321 319 317 316 315 314 312 310 309 307 306 306 305 305 305 305 305 305
320 322 322 321 322 336 326 322 320 322 329 321 321 321 321 322 325 322 316 313 313 314 314 315 316 319 320 317 315 314 312 311 309 308 307 307 305 304 303 303 303 303 303 304
319 317 319 320 322 321 322 319 316 324 326 322 321 320 322 323 320 316 312 312 312 314 313 312 313 314 316 316 314 312 309 308 305 302 302 301 301 301 301 301 301 302 302 303
318 318 318 320 322 326 322 318 317 320 320 321 320 319 321 321 319 317 313 311 311 311 311 311 312 312 312 311 309 307 305 304 302 301 299 299 299 300 300 300 300 301 301 301
320 319 322 320 318 320 317 317 319 320 316 321 320 320 320 320 318 316 314 313 310 310 310 310 311 310 310 307 305 303 302 301 300 300 298 298 298 299 299 299 301 301 300 300
316 316 318 318 317 317 315 314 314 314 316 320 319 319 319 319 318 315 314 311 309 308 308 308 308 309 308 306 302 301 299 298 297 296 296 296 296 297 298 299 300 300 300 299
315 316 317 319 318 315 314 317 318 319 319 319 319 319 319 319 318 314 313 310 309 307 306 305 305 306 307 305 303 301 300 299 296 295 295 296 297 297 298 299 299 299 299 298
315 316 318 320 315 315 315 316 317 319 319 319 319 319 318 318 318 313 313 309 307 307 305 304 304 303 304 304 303 301 299 298 297 296 295 296 297 297 297 297 296 296 296 296
Wind_Speed
5 9 6 10 10 14 16 17 19 21 20 20 22 25 24 23 24 24 24 23 23 24 25 31 26 25 20 21 24 27 33 34 34 32 31 31 30 28 25 21 21 22 21 20
9 9 6 10 11 14 16 18 20 20 16 24 27 27 29 25 20 20 19 19 22 22 23 23 26 28 23 23 25 29 34 35 37 34 34 32 30 28 25 23 22 22 22 21
11 9 6 9 12 14 13 16 16 23 26 26 23 19 8 15 15 8 12 14 16 19 21 22 21 27 26 25 27 29 32 36 37 34 31 27 26 25 25 24 22 21 21 21
6 1 10 10 12 8 15 13 21 25 21 14 17 9 16 10 11 9 7 11 14 15 18 22 21 22 26 26 28 31 32 36 37 35 32 30 31 28 30 27 23 23 21 21
8 11 10 9 8 10 14 19 24 26 20 13 13 7 11 21 7 14 18 21 20 18 19 22 24 25 33 29 28 31 32 36 36 35 33 32 31 30 29 26 23 20 21 20
13 5 7 7 11 14 12 19 22 5 5 5 4 8 12 12 20 21 24 26 24 21 21 23 23 29 32 31 29 30 33 32 33 33 31 31 30 29 30 26 25 24 21 20
12 4 1 4 16 4 13 15 5 3 6 12 9 10 10 17 23 26 26 27 25 22 20 21 23 22 25 28 28 27 30 30 30 31 33 33 29 29 31 30 28 26 24 22
9 3 4 9 12 10 13 6 1 6 10 15 17 5 8 19 22 18 24 24 23 16 13 14 20 22 20 27 25 25 30 30 28 31 31 31 29 29 27 29 29 27 25 23
7 3 13 5 12 6 9 6 10 5 8 7 2 4 5 18 27 27 25 23 20 21 8 11 17 17 22 25 22 26 29 31 31 31 31 31 31 30 27 28 28 27 24 24
4 8 8 13 4 6 4 6 4 1 6 7 14 8 5 18 25 26 28 26 23 20 10 10 15 16 23 23 24 28 32 35 32 31 35 33 32 25 28 29 29 27 26 25
9 5 12 16 3 7 4 6 2 3 4 4 8 10 2 17 20 24 25 25 23 22 13 8 11 17 23 21 25 26 32 31 33 30 27 28 26 25 24 26 27 27 29 29
6 6 8 19 3 8 10 12 7 3 4 6 3 5 17 20 26 22 22 23 25 25 10 6 11 13 13 17 21 23 26 31 32 31 28 27 22 23 29 26 29 29 30 29
6 4 9 11 7 7 18 15 13 11 12 6 7 9 20 22 21 23 23 22 23 25 14 5 10 10 12 17 19 21 26 25 29 31 27 34 31 29 32 32 33 30 32 32
7 9 7 7 16 17 14 16 12 13 7 6 5 23 21 24 21 24 21 19 16 17 19 3 3 6 10 17 19 21 23 26 26 25 31 32 30 32 34 33 33 33 34 37
4 11 13 16 17 16 12 10 14 13 5 4 14 20 17 22 19 17 16 17 17 17 17 16 4 4 10 14 17 20 23 25 24 25 27 29 32 32 33 34 34 35 33 29
6 9 14 16 10 8 15 9 15 15 7 6 17 18 15 16 13 16 18 18 15 15 15 14 12 6 7 10 13 18 22 28 28 27 30 32 35 34 35 38 39 39 35 34
7 7 9 10 15 15 2 7 14 14 2 11 15 20 17 19 18 14 19 17 15 15 15 13 10 7 9 14 13 9 23 29 28 29 31 31 35 35 36 40 43 41 37 32
7 10 7 11 13 3 3 7 12 14 3 13 16 20 20 14 14 8 14 17 17 14 14 16 11 9 16 20 21 23 25 26 27 27 29 30 34 36 36 37 42 43 42 38
10 7 6 4 10 15 2 5 14 15 13 12 18 19 19 18 7 1 15 15 15 15 10 9 13 14 12 12 18 26 25 27 27 24 26 30 34 36 37 34 33 35 39 35
4 8 6 10 4 3 3 10 14 11 3 18 17 17 18 17 12 9 19 16 14 13 17 15 17 14 13 13 15 18 26 25 30 27 28 31 35 36 33 34 32 33 37 35
8 6 9 8 7 9 6 10 14 6 12 18 16 15 17 10 5 11 10 15 15 16 18 20 18 18 14 14 18 19 22 23 28 33 34 34 36 38 41 39 35 36 32 32
6 6 6 5 7 6 6 14 12 12 14 16 14 13 14 11 9 11 7 9 14 15 17 19 14 15 19 15 20 22 23 26 32 35 36 36 36 37 36 42 35 33 33 33
4 4 8 7 8 17 19 15 11 11 16 13 12 12 12 13 9 10 9 10 8 11 14 14 11 12 18 18 17 23 21 29 34 37 36 34 34 33 31 33 31 31 31 29
13 10 9 13 4 11 19 20 18 16 15 10 9 10 12 11 8 8 7 8 8 10 11 11 10 12 13 23 25 25 27 31 35 35 33 34 35 33 28 26 26 26 25 24
14 17 14 18 19 15 10 9 9 9 8 8 8 7 10 11 8 5 6 7 7 7 9 10 11 11 13 22 29 25 29 37 39 32 30 31 30 33 29 26 24 24 21 22
16 21 14 12 4 8 12 11 12 10 10 9 8 9 8 7 7 4 5 5 5 6 7 10 12 15 16 20 28 31 26 33 42 33 26 24 26 28 28 29 32 30 29 25
Wind_Direction
336 284 305 339 311 297 296 295 296 295 301 296 283 290 288 282 276 272 268 265 259 253 254 257 247 241 238 237 217 210 203 198 192 189 190 192 192 193 189 188 184 180 182 181
263 275 349 312 304 295 295 296 292 303 309 311 299 298 291 279 268 266 269 271 264 253 248 252 243 238 223 231 218 213 204 194 188 188 192 196 194 191 187 186 185 183 183 182
297 302 341 309 307 306 308 301 310 307 314 301 295 306 300 315 285 267 280 277 272 262 245 246 247 237 226 222 217 214 204 195 185 189 194 192 192 189 186 185 184 186 184 183
286 346 303 307 304 320 308 336 313 309 319 309 336 294 302 306 283 272 300 312 300 271 248 248 241 242 224 222 214 213 203 195 189 191 191 189 187 187 191 181 181 182 182 182
339 314 319 300 333 321 292 319 303 296 294 306 284 258 270 309 308 329 317 321 309 291 267 246 242 231 235 215 212 209 208 197 195 191 191 187 191 192 179 178 169 175 177 179
307 287 281 309 311 286 307 306 317 300 306 263 337 315 302 353 326 316 325 317 306 296 277 254 239 229 230 211 204 209 209 200 192 186 191 188 192 184 178 170 172 174 173 173
317 169 183 286 326 315 320 352 322 324 304 309 5 315 287 332 330 325 306 313 305 294 283 247 226 221 220 212 202 192 204 198 189 186 189 188 188 180 170 164 178 174 171 171
344 156 13 349 341 312 313 29 2 305 329 308 310 304 307 325 308 321 329 316 309 305 276 236 217 216 208 209 198 181 198 192 184 190 187 186 183 180 171 171 176 173 173 170
320 302 341 325 321 295 359 327 334 283 264 267 263 266 298 325 332 335 331 332 327 319 284 248 225 205 209 195 196 182 192 189 187 190 187 182 180 179 167 177 163 166 169 162
334 298 300 326 266 192 308 357 321 282 305 299 331 338 293 310 323 327 335 337 328 314 282 229 236 206 199 190 187 181 189 187 182 184 189 176 176 171 164 164 165 159 153 152
296 239 304 297 331 351 2 333 294 240 247 292 318 335 342 323 326 329 334 337 328 302 297 219 223 209 191 179 180 178 181 184 179 182 182 170 160 170 154 145 144 145 143 147
328 297 289 298 278 219 334 343 345 285 314 274 256 290 350 353 327 330 339 334 334 330 306 206 189 184 183 167 180 179 180 180 174 179 167 140 162 148 136 135 134 139 132 137
336 253 309 327 161 222 340 315 322 297 283 273 310 304 332 341 333 336 346 336 342 339 357 318 179 175 196 165 162 148 149 157 159 169 139 134 145 140 127 131 141 138 140 130
216 260 282 283 297 302 297 323 313 309 308 325 288 315 345 332 343 336 335 336 346 349 356 40 154 166 147 147 143 150 155 160 157 152 132 134 135 130 132 138 143 145 145 144
245 287 304 303 294 283 295 301 331 336 347 297 316 325 353 333 327 344 332 340 0 8 7 2 68 188 159 159 155 153 151 150 150 139 124 118 121 124 132 135 132 128 125 121
306 284 303 293 284 280 283 276 324 341 351 315 332 337 342 325 327 0 351 350 360 5 7 360 9 141 123 140 146 159 135 128 130 116 112 118 126 130 129 126 123 126 128 132
284 298 310 300 327 304 341 290 340 335 359 336 351 337 354 339 346 14 346 349 359 2 359 356 11 51 72 70 80 110 114 119 124 121 121 125 128 122 122 124 124 123 124 125
269 300 282 303 310 279 38 330 337 328 330 347 353 346 358 341 325 34 352 348 354 2 13 356 5 38 60 96 102 99 109 114 110 113 116 119 118 117 121 123 125 132 133 125
229 285 303 299 317 286 38 353 343 338 323 345 357 346 357 343 311 116 5 353 349 350 7 13 16 36 51 81 110 112 111 114 115 115 118 121 122 122 124 122 123 124 122 118
217 243 277 313 291 286 48 352 334 319 224 5 358 351 356 347 1 348 348 347 348 1 8 18 18 45 79 99 112 115 122 123 121 122 119 122 125 124 122 123 122 119 117 118
306 278 262 269 281 285 52 347 322 270 354 335 352 356 350 353 336 318 335 337 352 358 14 15 28 31 47 108 114 107 110 112 116 117 117 117 119 120 124 120 119 119 119 120
290 307 288 283 276 284 37 329 337 327 323 322 341 354 345 351 354 341 6 330 349 359 4 18 20 39 43 68 99 101 103 114 118 118 114 115 119 120 124 126 121 121 121 114
269 236 312 296 295 316 311 306 304 305 312 317 338 350 347 342 6 346 349 4 2 11 6 9 19 54 74 89 93 104 109 116 116 114 112 113 114 117 119 120 127 121 118 119
277 259 257 301 261 305 309 300 290 288 292 327 335 338 342 349 6 346 3 5 2 17 17 16 37 61 82 106 105 105 111 111 108 107 111 113 111 110 112 114 117 117 118 118
280 293 277 283 284 285 258 347 339 316 317 318 329 342 342 341 12 358 9 10 6 17 48 53 50 53 91 112 112 118 120 118 102 94 102 107 110 111 113 110 112 113 108 109
259 260 253 263 340 291 294 311 317 310 306 329 335 331 342 347 8 10 49 32 25 26 69 80 74 68 78 109 117 117 122 123 115 111 108 111 114 116 118 111 100 102 108 112